This is the latest recevied weather packets stored in our database for station/object N6DZK. If no packets are shown the sender has not sent any weather packets the latest 10 day(s).
| Time | Temp. | Humidity | Pressure | Rain* | Wind** | Luminosity | Snow |
|---|---|---|---|---|---|---|---|
| 1777249431 | 17.22° C | 59% | 1013.7 hPa | 0 mm | - | 246 W/m² | - |
| 1777249129 | 17.22° C | 58% | 1013.4 hPa | 0 mm | - | 209 W/m² | - |
| 1777248824 | 17.22° C | 58% | 1013.5 hPa | 0 mm | - | 190 W/m² | - |
| 1777248522 | 17.22° C | 58% | 1013.7 hPa | 0 mm | - | 296 W/m² | - |
| 1777248218 | 16.67° C | 57% | 1013.7 hPa | 0 mm | - | 183 W/m² | - |
| 1777247918 | 16.67° C | 57% | 1013.6 hPa | 0 mm | - | 222 W/m² | - |
| 1777247613 | 16.67° C | 58% | 1013.5 hPa | 0 mm | - | 243 W/m² | - |
| 1777247311 | 16.67° C | 56% | 1013.5 hPa | 0 mm | - | 220 W/m² | - |
| 1777247009 | 16.67° C | 58% | 1013.6 hPa | 0 mm | - | 199 W/m² | - |
| 1777246706 | 16.67° C | 57% | 1013.6 hPa | 0 mm | - | 194 W/m² | - |
| 1777246401 | 16.67° C | 58% | 1013.6 hPa | 0 mm | - | 202 W/m² | - |
| 1777246099 | 16.67° C | 55% | 1013.5 hPa | 0 mm | - | 162 W/m² | - |
| 1777245796 | 17.22° C | 55% | 1013.4 hPa | 0 mm | - | 194 W/m² | - |
| 1777245495 | 17.22° C | 56% | 1013.6 hPa | 0 mm | - | 268 W/m² | - |
| 1777245190 | 17.22° C | 58% | 1013.5 hPa | 0 mm | - | 348 W/m² | - |
| 1777244885 | 16.67° C | 57% | 1013.8 hPa | 0 mm | - | 325 W/m² | - |
| 1777244582 | 16.11° C | 58% | 1013.5 hPa | 0 mm | - | 291 W/m² | - |
| 1777244278 | 16.11° C | 60% | 1013.6 hPa | 0 mm | - | 256 W/m² | - |
| 1777243976 | 15.56° C | 63% | 1013.8 hPa | 0 mm | - | 188 W/m² | - |
| 1777243672 | 15.56° C | 67% | 1013.6 hPa | 0 mm | - | 126 W/m² | - |
| 1777243370 | 15.56° C | 66% | 1013.8 hPa | 0 mm | - | 112 W/m² | - |
| 1777243065 | 15.56° C | 65% | 1013.7 hPa | 0 mm | - | 111 W/m² | - |
| 1777242762 | 16.11° C | 64% | 1013.7 hPa | 0 mm | - | 125 W/m² | - |
| 1777242458 | 16.11° C | 64% | 1013.7 hPa | 0 mm | - | 131 W/m² | - |
| 1777242155 | 16.11° C | 64% | 1013.5 hPa | 0 mm | - | 162 W/m² | - |
* Rain latest hour (hover to see other rain measurements)
** Current wind speed in m/s (hover to see current wind gust speed)